CST,Max TemperatureF,Mean TemperatureF,Min TemperatureF,Max Dew PointF,MeanDew PointF,Min DewpointF,Max Humidity, Mean Humidity, Min Humidity, Max Sea Level PressureIn, Mean Sea Level PressureIn, Min Sea Level PressureIn, Max VisibilityMiles, Mean VisibilityMiles, Min VisibilityMiles, Max Wind SpeedMPH, Mean Wind SpeedMPH, Max Gust SpeedMPH,PrecipitationIn, CloudCover, Events, WindDirDegrees
2013-2-1,27,21,14,15,9,5,68,59,50,30.54,30.43,30.30,10,10,8,18,6,29,T,4,Snow,278
2013-2-2,44,34,24,32,26,15,82,66,49,30.34,30.17,30.07,10,10,8,20,9,24,0.00,6,,214
2013-2-3,39,32,24,32,28,20,96,80,64,30.20,30.10,30.01,10,8,0,21,6,30,0.10,6,Fog-Snow,269
2013-2-4,55,39,22,39,29,20,92,64,35,30.15,30.00,29.91,10,9,5,21,6,26,T,5,,209
2013-2-5,59,47,35,41,37,30,83,63,43,30.08,29.97,29.91,10,10,10,17,5,21,0.00,4,,258
2013-2-6,55,43,30,34,31,26,89,62,35,30.26,30.19,30.12,10,9,4,8,2,24,0.00,0,,28
2013-2-7,67,52,37,46,39,33,85,61,37,30.13,30.00,29.88,10,10,9,15,6,20,0.00,2,,162
2013-2-8,54,45,35,49,37,27,89,75,60,30.37,30.10,29.87,10,9,2,16,9,24,0.28,8,Rain,324
2013-2-9,51,39,26,30,27,23,78,58,38,30.40,30.30,30.15,10,10,10,13,6,16,0.00,2,,74
2013-2-10,62,52,42,54,43,28,93,65,36,30.14,29.96,29.84,10,8,2,26,12,38,0.26,7,Rain,172
2013-2-11,58,46,34,54,37,25,93,64,35,30.17,30.04,29.88,10,10,10,18,9,24,0.00,2,,236
2013-2-12,52,40,28,33,29,25,92,64,35,30.20,30.07,29.86,10,10,10,9,2,24,0.00,3,,66
2013-2-13,45,40,35,36,33,31,89,74,58,30.01,29.88,29.76,10,9,5,13,5,21,0.14,7,Rain,328
2013-2-14,59,47,34,38,34,32,89,63,37,30.01,29.99,29.95,10,10,7,21,8,25,0.00,1,,217
2013-2-15,49,40,30,35,28,19,85,64,42,30.21,30.13,30.03,10,10,10,17,5,23,0.00,4,,327
2013-2-16,38,31,24,22,15,7,75,54,32,30.22,30.18,30.14,10,10,10,18,5,25,0.00,2,,301
2013-2-17,44,31,18,18,14,12,73,51,29,30.30,30.23,30.18,10,10,10,13,3,17,0.00,1,,192
2013-2-18,63,46,28,43,31,17,71,51,30,30.18,30.00,29.82,10,10,8,30,15,40,0.22,4,Rain,188
2013-2-19,48,39,29,45,28,14,86,58,30,30.26,30.03,29.82,10,10,7,25,11,31,0.04,4,Rain,282
2013-2-20,35,29,22,16,14,11,65,53,41,30.37,30.31,30.28,10,10,10,12,4,18,0.00,0,,336
2013-2-21,44,33,22,37,24,15,89,63,37,30.32,30.11,29.90,10,9,3,20,10,28,0.70,4,Rain,73
2013-2-22,61,51,40,47,42,34,96,74,51,30.05,29.95,29.86,10,9,2,17,8,22,0.01,5,Rain,246
2013-2-23,50,42,34,34,28,24,82,59,36,30.05,30.01,29.94,10,10,10,8,3,13,0.00,4,,340
2013-2-24,53,39,25,26,24,22,81,56,30,30.17,30.10,30.03,10,10,7,9,3,13,0.00,0,,58
2013-2-25,60,45,30,30,27,24,72,52,31,30.07,29.91,29.61,10,10,10,18,11,22,0.00,2,,69
2013-2-26,54,48,41,50,42,33,89,67,44,29.68,29.50,29.41,10,8,2,25,13,35,0.44,8,Rain,202
2013-2-27,41,39,36,36,33,30,92,81,70,29.88,29.82,29.70,10,8,2,20,12,26,0.01,8,Rain-Snow,244
2013-2-28,39,36,33,32,29,26,89,77,64,30.06,29.98,29.86,10,9,6,16,9,21,T,8,Snow,280